Other Public Products
Issued by NWS Grand Forks, ND

Home | Current Version | Previous Version | Graphics & Text | Print | Product List | Glossary On
Versions: 1 2 3 4 5 6 7 8 9 10 11 12 13 14 15 16 17 18 19 20 21 22 23 24 25 26 27 28 29 30 31 32 33 34 35 36 37 38 39 40 41 42 43 44 45 46 47 48 49 50
000
FPUS83 KFGF 242131
OPUFGF
PRAIRIE TO PINES WEATHER ROUNDUP
NATIONAL WEATHER SERVICE EASTERN NORTH DAKOTA/GRAND FORKS ND
300 PM CST SAT JAN 24 2015

 **SATELLITE DATA USED TO AUGMENT SKY COVER AT AUTOMATED STATIONS**
 *****  WEATHER ACROSS EASTERN NORTH DAKOTA  *****

CITY           SKY/WX    TMP DP  RH WIND       PRES   REMARKS
GRAND FORKS    CLOUDY    30  28  93 N12       29.64R WCI  21
GRAND FORKS AF CLOUDY    28  27  93 N15       29.65R WCI  17
GRAND CITY NWS   N/A     30 N/A N/A N12         N/A  WCI  21
BUXTON         NOT AVBL
DEVILS LAKE    CLOUDY    27  25  93 NE13      29.63R WCI  16
FARGO          CLOUDY    34  29  82 N6        29.59R
WAHPETON ARPT  CLOUDY    34  30  86 N9        29.58S
$$

 *****  WEATHER ACROSS CENTRAL AND WESTERN NORTH DAKOTA  *****

CITY           SKY/WX    TMP DP  RH WIND       PRES   REMARKS
JAMESTOWN      LGT SNOW  32  30  92 N8        29.56S VSB 1   WCI  25
BISMARCK       LGT RAIN  40  31  70 NW14      29.59R
MINOT          LGT SNOW  31  29  92 N5        29.65R FOG
MINOT AFB      FLURRIES  31  31  99 N5        29.64R
GARRISON         N/A     34  34 100 NE7       29.60R
WILLISTON      CLOUDY    39  34  82 NW18G30   29.73R
DICKINSON      CLOUDY    41  36  82 NW22G32   29.63R
HETTINGER      CLOUDY    41  35  79 NW28G38   29.67S
$$

 *****  OTHER OBSERVATIONS NORTHEAST NORTH DAKOTA  *****

CITY           SKY/WX    TMP DP  RH WIND       PRES   REMARKS
WALHALLA         N/A     19  19 100 N10       29.72F WCI   8
LANGDON        LGT SNOW  19  18  93 NE15      29.65S WCI   5
CAVALIER       CLOUDY    21  19  93 N15       29.71R WCI   8
GRAFTON        NOT AVBL
CANDO          LGT SNOW  25  23  93 NE13      29.66R WCI  13
FORT TOTTEN      N/A     29  28  95 NE6       29.95  WCI  23
ROLLA          FLURRIES  23  23 100 NE13      29.66R WCI  11
RUGBY          MIX PCPN  28  28 100 NE13      29.64R WCI  18
 ***** THE ABOVE OBSERVATIONS ARE NON NWS ARE NOT QUALITY
        CONTROLLED AND MAY MIS-REPORT RAIN FOR SNOW...
$$

 *****  OTHER OBSERVATIONS SOUTHEAST NORTH DAKOTA *****

CITY           SKY/WX    TMP DP  RH WIND       PRES   REMARKS
COOPERSTOWN    NOT AVBL
VALLEY CITY    CLOUDY    32  32 100 NE10      29.58R WCI  24
OAKES          LGT RAIN  32  32 100 N5        29.56F
GWINNER        MOCLDY    36  34  93 N7        29.58S
BUFFALO        NOT AVBL
WYNDMERE         N/A     36  30  80 N7          N/A
 ***** THE ABOVE OBSERVATIONS ARE NON NWS ARE NOT QUALITY
       CONTROLLED AND MAY MIS-REPORT RAIN FOR SNOW...
$$

  *****  WEATHER ACROSS NORTHERN MINNESOTA  *****

CITY           SKY/WX    TMP DP  RH WIND       PRES   REMARKS
FLAG ISLAND    SUNNY     18   9  68 NE16      29.71R WCI   3
WARROAD        MOSUNNY   21  14  73 NE14      29.69R WCI   8
ROSEAU         MOSUNNY   25  18  74 E15       29.67S WCI  12
HALLOCK        CLOUDY    34  27  75 N6        29.67R
THF RVR FALLS  CLOUDY    34  27  75 NE9       29.63R
HALSTAD          N/A     34  32  94 NE10        N/A
FOSSTON        CLOUDY    30  30 100 NE6       29.61R WCI  24
BAUDETTE       MOSUNNY   28  15  58 NE9       29.66R WCI  19
WASKISH        PTSUNNY   30  23  74 NE12      29.64R WCI  21
CROOKSTON      CLOUDY    34  30  86 NE6       29.64R
$$
  *****  WEATHER ACROSS CENTRAL AND WEST MINNESOTA  *****

CITY           SKY/WX    TMP DP  RH WIND       PRES   REMARKS
BEMIDJI        CLOUDY    33  29  85 NE7       29.59R
PARK RAPIDS    CLOUDY    33  30  88 NE6       29.56F
WADENA         CLOUDY    30  30 100 CALM      29.56S
DETROIT LAKES  CLOUDY    34  32  93 NE5       29.58R
MOORHEAD       CLOUDY    34  34 100 NE3       29.59S
FERGUS FALLS   CLOUDY    32  32 100 N3        29.60S
ELBOW LAKE     CLOUDY    32  30  93 NW5       29.56F
MORRIS MN      CLOUDY    36  30  80 NW7       29.56S
STAPLES        CLOUDY    30  30 100 N5        29.57R
WHEATON        CLOUDY    34  28  80 NW6       29.59S
$$
  *****  WEATHER ELSEWHERE ACROSS MINNESOTA  *****

CITY           SKY/WX    TMP DP  RH WIND       PRES   REMARKS
DULUTH         CLOUDY    36  28  73 N5        29.58S
INTRNTL FALLS  SUNNY     23   9  55 N12       29.66S WCI  12
ELY            PTSUNNY   28  19  69 NE7       29.62S WCI  21
CLOQUET        CLOUDY    36  27  69 CALM      29.58S
BRAINERD       CLOUDY    35  30  82 N6        29.57F
HIBBING        CLOUDY    35  27  72 NE8       29.59R
ALEXANDRIA     CLOUDY    35  29  78 N5        29.56S
SAINT CLOUD    CLOUDY    40  31  70 NE3       29.56S
MINNEAPOLIS    CLOUDY    41  31  67 S3        29.58F
$$

  *****  WEATHER ACROSS SOUTH DAKOTA  *****

CITY           SKY/WX    TMP DP  RH WIND       PRES   REMARKS
SIOUX FALLS    CLOUDY    42  33  70 W8        29.60F
BROOKINGS      NOT AVBL
WATERTOWN      CLOUDY    36  31  82 W6        29.56F
HURON          LGT RAIN  43  38  82 W5        29.58F
SISSETON         N/A     37  31  78 NW7       29.56F
ABERDEEN       LGT RAIN  39  37  92 CALM      29.57F FOG
MITCHELL       LGT RAIN  44  35  70 CALM      29.60F
PIERRE         CLOUDY    52  35  52 W13       29.59F
MOBRIDGE       CLOUDY    49  38  65 NW17      29.53F
RAPID CITY     LGT RAIN  49  39  68 NW38G48   29.77R
$$

  *****  SOME WEATHER IN NEARBY STATES *****

CITY           SKY/WX    TMP DP  RH WIND       PRES   REMARKS
GLASGOW MT     MOSUNNY   45  35  68 NW23G33   29.87R
GREAT FALLS MT PTSUNNY   50  34  54 W14       30.10R
CHEYENNE WY    CLOUDY    46  18  32 W18G31    29.99S
SCOTTSBLUFF NE CLOUDY    44  28  53 W17       29.93R
OMAHA NE       CLOUDY    54  31  41 SW8       29.68F
DES MOINES IA  CLOUDY    52  31  44 W9        29.66F
DAVENPORT IA   SUNNY     46  34  62 W16       29.66F
CHICAGO IL     PTSUNNY   39  31  72 W12       29.63R
EAU CLAIRE WI  CLOUDY    38  29  70 SW7       29.59F
LA CROSSE WI   SUNNY     44  31  60 N3        29.61F
$$

  *****  SOME NATIONAL WEATHER *****

CITY           SKY/WX    TMP DP  RH WIND       PRES   REMARKS
LA GUARDIA NY  CLOUDY    37  32  82 N13G22    29.28S
RALEIGH NC     PTSUNNY   48  34  58 W12G18    29.64R
ATLANTA GA     SUNNY     48  25  40 NW14G22   29.89S
NEW ORLEANS LA MOSUNNY   57  32  38 VRB6      30.10F
OKLAHOMA CITY  MOSUNNY   62  30  29 SW10      29.98F
ALBUQUERQUE NM MOSUNNY   47  18  31 NW5       30.26F
SALT LAKE CITY PTSUNNY   40  21  46 CALM      30.45F
LOS ANGELES CA SUNNY     73  26  17 SW12      30.01F
BOISE ID       CLOUDY    38  31  76 CALM      30.45F
SEATTLE WA     CLOUDY    55  53  93 S7        30.29F
$$

*** WEATHER ACROSS MANITOBA...SASKATCHEWAN AND ONTARIO ***
                ***ONTARIO***

CITY           SKY/WX    TMP DP  RH WIND       PRES   REMARKS
GERALDTON      SUNNY      3  -8  60 N13G18    29.71R WCI -14
THUNDER BAY    SUNNY     18   5  57 N8        29.72S WCI   7
SIOUX LOOKOUT  MOSUNNY    7  -4  61 N6        29.77S WCI  -3
TORONTO        FRZ DRZL  30  27  86 W10       29.46S WCI  21
BIG TROUT LK   CLEAR     -2  -9  71 NW7       29.93R WCI -16
PICKLE LAKE    MOSUNNY    1  -8  66 N6        29.81S WCI -10
DRYDEN         SUNNY     10   1  67 NE12      29.74S WCI  -4
KENORA         MOSUNNY   12   3  67 NE8       29.71S WCI   1
$$
                *** MANITOBA***

CITY           SKY/WX    TMP DP  RH WIND       PRES   REMARKS
BRANDON        FLURRIES  16  12  86 NE16      29.72S WCI   0
DAUPHIN        CLOUDY    10   7  85 E9        29.80S WCI  -2
ISLAND LAKE    MOSUNNY   -4 -11  71 VRB2      29.95S
PILOT MOUND      N/A     19  16  86 NE9         N/A  WCI   9
THE PAS        FLURRIES   1  -4  78 E10       29.85S WCI -14
THOMPSON       MOCLDY    -8 -15  71 NE5       29.99S WCI -19
WINNIPEG       CLOUDY    14   9  79 N16       29.75S WCI  -2
LYNN LAKE      FLURRIES  -6  -9  84 SE8       29.89R WCI -21
CHURCHILL      PTCLDY   -20 -26  76 NW9       30.10S WCI -40
GILLAM         PTCLDY   -15 -20  76 NW6       30.05R WCI -29
$$
                ***SASKATCHEWAN***

CITY           SKY/WX    TMP DP  RH WIND       PRES   REMARKS
ESTEVAN        DRIZZLE  N/A N/A N/A NW10        N/A
KINDERSLEY     MOSUNNY   39  30  70 NW16G23   29.86R
LLOYDMINSTER   MOSUNNY   39  30  70 W20G28    29.80R
PRINCE ALBERT  FRZ DRZL  19  16  86 SE5       29.67R FOG     WCI  13
REGINA         PTSUNNY   36  34  93 NW13      29.68S
YORKTON        LGT SNOW  19  18  93 E7        29.68S WCI  10


USA.gov is the U.S. government's official web portal to all federal, state and local government web resources and services.